Home > Weather > Aarhus > Past weeks

Flag for Denmark Past Weather in Aarhus, Denmark — Yesterday and Last 2 Weeks

Now
61 °F

Passing clouds.


Feels Like: 61 °F
Forecast: 52 / 71 °F
Wind: 2 mph from West

Location: Tirstrup

Current Time: Jul 26, 2016 at 4:46:53 AM

Latest Report: Jul 26, 2016 at 3:50 AM


Visibility: 6 mi

Pressure: 30.04 "Hg

Humidity: 83%

Dew Point: 55 °F

Location of AarhusLocation

Past Weather in Aarhus — Graph

°F

Aarhus Temperature Yesterday

Maximum temperature yesterday: 77 °F (at 1:20 PM)
Minimum temperature yesterday: 63 °F (at 2:20 AM)
Average temperature yesterday: 70 °F

High & Low Weather Summary for the Past Weeks

 TemperatureHumidityPressure
High81 °F (Jul 22, 3:20 PM)94% (Jul 15, 2:50 AM)30.15 "Hg (Jul 15, 2:50 AM)
Low52 °F (Jul 13, 3:50 AM)28% (Jul 24, 2:20 PM)29.56 "Hg (Jul 11, 5:50 AM)
Average65 °F69%29.98 "Hg
* Reported Jul 11 3:20 AM — Jul 26 3:20 AM, Aarhus, Weather by CustomWeather, © 2016

Note: Actual official high and low records may vary slightly from our data, if they occured in-between our weather recording intervals... More about our weather records

Advertising

Aarhus Weather History for the Previous 24 Hours

Scroll right to see more
 ConditionsComfort  
Time TempWeatherWind HumidityBarometerVisibility
3:20 AM
Tue, Jul 26
63 °FPassing clouds.6 mph77%30.04 "HgN/A
2:50 AM63 °FMild.7 mph77%30.04 "HgN/A
2:20 AM64 °FPassing clouds.8 mph78%30.01 "HgN/A
1:50 AM64 °FPassing clouds.5 mph83%30.01 "HgN/A
1:20 AM66 °FPassing clouds.3 mph78%30.04 "HgN/A
12:50 AM64 °FMild.5 mph78%30.04 "HgN/A
12:20 AM66 °FPassing clouds.6 mph78%30.04 "HgN/A
11:50 PM
Mon, Jul 25
68 °FPassing clouds.5 mph78%30.04 "HgN/A
11:20 PM68 °FPassing clouds.2 mph73%30.04 "HgN/A
10:50 PM68 °FPassing clouds.3 mph73%30.04 "HgN/A
10:20 PM68 °FScattered clouds.6 mph73%30.04 "HgN/A
9:50 PM70 °FScattered clouds.6 mph69%30.01 "HgN/A
9:20 PM72 °FScattered clouds.5 mph65%30.01 "HgN/A
8:50 PM73 °FScattered clouds.2 mph65%30.01 "HgN/A
8:20 PM73 °FScattered clouds.3 mph65%30.01 "HgN/A
7:50 PM75 °FPassing clouds.6 mph61%30.01 "HgN/A
7:20 PM75 °FMild.3 mph65%30.01 "HgN/A
6:50 PM75 °FPassing clouds.5 mph65%29.98 "HgN/A
6:20 PM75 °FMild.5 mph65%29.98 "HgN/A
5:50 PM75 °FMild.6 mph61%29.98 "HgN/A
5:20 PM75 °FPassing clouds.5 mph61%30.01 "HgN/A
4:50 PM75 °FScattered clouds.3 mph57%30.01 "HgN/A
4:20 PM75 °FPassing clouds.5 mph54%30.01 "HgN/A
3:50 PM77 °FScattered clouds.5 mph54%30.01 "HgN/A
3:20 PM77 °FScattered clouds.6 mph54%30.01 "HgN/A
2:50 PM75 °FPartly sunny.7 mph57%30.01 "HgN/A
2:20 PM77 °FPartly sunny.6 mph51%30.04 "HgN/A
1:50 PM77 °FPassing clouds.7 mph51%30.04 "HgN/A
1:20 PM77 °FPassing clouds.8 mph51%30.04 "HgN/A
12:50 PM75 °FScattered clouds.6 mph54%30.04 "HgN/A
12:20 PM75 °FScattered clouds.6 mph57%30.04 "HgN/A
11:50 AM75 °FScattered clouds.6 mph57%30.04 "HgN/A
11:20 AM73 °FPassing clouds.5 mph61%30.04 "HgN/A
10:50 AM72 °FPassing clouds.3 mph65%30.04 "HgN/A
10:20 AM72 °FPassing clouds.6 mph65%30.04 "HgN/A
9:50 AM72 °FPartly sunny.6 mph65%30.04 "HgN/A
9:20 AM72 °FPassing clouds.6 mph65%30.07 "HgN/A
8:50 AM70 °FPassing clouds.7 mph69%30.07 "HgN/A
8:20 AM68 °FMild.3 mph73%30.07 "HgN/A
7:50 AM68 °FMild.3 mph69%30.07 "HgN/A
7:20 AM68 °FMild.1 mph73%30.07 "HgN/A
6:50 AM66 °FMild.2 mph83%30.07 "HgN/A
6:20 AM63 °FMild.No wind83%30.07 "HgN/A
5:50 AM63 °FMild.1 mph77%30.07 "HgN/A
5:20 AM63 °FMild.2 mph77%30.07 "HgN/A
4:50 AM63 °FMild.1 mph77%30.07 "HgN/A
4:20 AM63 °FMild.1 mph83%30.09 "HgN/A
Weather by CustomWeather, © 2016

See weather overviewHow to use our weather pages